TimeCDT,TemperatureF,Dew PointF,Humidity,Sea Level PressureIn,VisibilityMPH,Wind Direction,Wind SpeedMPH,Gust SpeedMPH,PrecipitationIn,Events,Conditions,WindDirDegrees,DateUTC
12:56 AM,3.0,-2.0,80,30.13,10.0,Calm,Calm,-,N/A,,Clear,0,2013-03-21 05:56:00
1:56 AM,1.0,-2.9,83,30.14,10.0,Calm,Calm,-,N/A,,Clear,0,2013-03-21 06:56:00
2:56 AM,1.0,-4.0,79,30.13,10.0,Calm,Calm,-,N/A,,Clear,0,2013-03-21 07:56:00
3:56 AM,-0.0,-5.1,79,30.12,10.0,Calm,Calm,-,N/A,,Clear,0,2013-03-21 08:56:00
4:56 AM,-0.0,-5.1,79,30.12,10.0,Calm,Calm,-,N/A,,Clear,0,2013-03-21 09:56:00
5:56 AM,-2.9,-7.1,82,30.13,10.0,WSW,3.5,-,N/A,,Clear,240,2013-03-21 10:56:00
6:47 AM,-2.2,-7.6,78,30.08,4.0,SW,3.5,-,N/A,,Scattered Clouds,230,2013-03-21 11:47:00
6:56 AM,-2.0,-7.1,79,30.14,3.0,SW,3.5,-,N/A,,Haze,220,2013-03-21 11:56:00
7:56 AM,-0.9,-5.1,83,30.15,4.0,Calm,Calm,-,N/A,,Clear,0,2013-03-21 12:56:00
8:56 AM,3.0,1.0,91,30.14,10.0,Calm,Calm,-,N/A,,Clear,0,2013-03-21 13:56:00
9:56 AM,9.0,1.9,73,30.13,10.0,WSW,4.6,-,N/A,,Clear,250,2013-03-21 14:56:00
10:56 AM,18.0,3.9,54,30.13,10.0,NNE,5.8,-,N/A,,Clear,20,2013-03-21 15:56:00
11:56 AM,18.0,3.9,54,30.12,10.0,NNW,5.8,-,N/A,,Clear,330,2013-03-21 16:56:00
12:56 PM,19.9,5.0,52,30.12,10.0,North,4.6,-,N/A,,Clear,360,2013-03-21 17:56:00
1:56 PM,21.9,6.1,51,30.11,10.0,Calm,Calm,-,0.04,,Clear,0,2013-03-21 18:56:00
2:56 PM,21.9,6.1,51,30.09,10.0,Calm,Calm,-,N/A,,Clear,0,2013-03-21 19:56:00
3:56 PM,21.9,6.1,51,30.09,10.0,WSW,6.9,-,N/A,,Clear,240,2013-03-21 20:56:00
4:56 PM,23.0,7.0,50,30.08,10.0,West,3.5,-,N/A,,Clear,270,2013-03-21 21:56:00
5:56 PM,23.0,7.0,50,30.08,10.0,West,5.8,-,N/A,,Clear,280,2013-03-21 22:56:00
6:56 PM,21.9,7.0,53,30.08,10.0,Calm,Calm,-,N/A,,Clear,0,2013-03-21 23:56:00
7:56 PM,19.0,6.1,57,30.08,10.0,WSW,4.6,-,N/A,,Clear,240,2013-03-22 00:56:00
8:56 PM,15.1,5.0,64,30.09,10.0,WSW,3.5,-,N/A,,Clear,240,2013-03-22 01:56:00
9:56 PM,15.1,5.0,64,30.09,10.0,WSW,3.5,-,N/A,,Clear,240,2013-03-22 02:56:00
10:56 PM,12.0,3.9,70,30.09,10.0,WSW,4.6,-,N/A,,Clear,240,2013-03-22 03:56:00
11:56 PM,12.9,3.9,67,30.09,10.0,WSW,3.5,-,N/A,,Clear,240,2013-03-22 04:56:00